Location: Boitzum
(52.1496°N, 9.6943°E)
Time: 00:53:16
(UTC+00:00)

Meteor 1-21 - Pass Details

Date: 13 January 2026
Orbit: 845 x 885 km, 81.2° (Epoch: 17 February)

Event Time Altitude Azimuth Distance (km) Brightness Sun altitude
Exits shadow 04:34:05 40° 340° (NNW) 1,246 4.8 -25.3°
Maximum altitude 04:36:14 80° 260° (W) 874 4.1 -24.9°
Drops below altitude 10° 04:41:53 10° 174° (S) 2,492 6.7 -24.1°
Sets 04:44:19 0° 173° (S) 3,431 7.5 -23.7°
